Regional Weather Roundup
Issued by NWS

Home | Current Version | Previous Version | Text Only | Print | Product List | Glossary Off
Versions: 1 2 3 4 5 6 7 8 9 10 11 12 13 14 15 16 17 18 19 20 21 22 23 24 25 26 27 28 29 30 31 32 33 34 35 36 37 38 39 40 41 42 43 44 45 46 47 48 49 50

000
ASUS45 KCYS 250510
RWRWY

WYOMING REGIONAL WEATHER ROUNDUP
NATIONAL WEATHER SERVICE CHEYENNE WY
1100 PM MDT SUN MAY 24 2015

NOTE:  "FAIR" INDICATES FEW OR NO CLOUDS BELOW 12,000 FEET
WITH NO SIGNIFICANT WEATHER AND/OR OBSTRUCTIONS TO VISIBILITY.

WYZ001-250600-
YELLOWSTONE NATIONAL PARK

CITY           SKY/WX    TMP DP  RH WIND       PRES   REMARKS
LK YELLOWSTONE   N/A     37  34  89 CALM      30.05S
W YELLOWSTONE  NOT AVBL

$$
WYZ002>013-054>058-071-098>099-250600-
NORTHERN WYOMING

CITY           SKY/WX    TMP DP  RH WIND       PRES   REMARKS
JACKSON        FAIR      46  37  71 N10       29.96R
CODY           CLOUDY    48  43  81 NW7       29.97F
GREYBULL       FAIR      52  45  77 W9        29.89S
WORLAND        CLOUDY    51  48  89 SE5       29.91S
SHERIDAN       LGT RAIN  50  49  96 NW9       29.93F
BUFFALO        LGT RAIN  46  45  96 SW3       29.95S FOG
GILLETTE       CLOUDY    50  48  93 NE8       29.91R
HULETT         CLOUDY    50  48  93 E6        29.92S
NEWCASTLE      CLOUDY    50  48  93 CALM      29.89R

$$
WYZ014>020-022>026-101>103-250600-
CENTRAL WYOMING

CITY           SKY/WX    TMP DP  RH WIND       PRES   REMARKS
BIG PINEY      CLOUDY    42  40  92 SW7       30.00R
PINEDALE       CLOUDY    41  41 100 CALM      30.01S
DUBOIS         MOCLDY    41  36  81 SW3       29.99R
LANDER         LGT RAIN  45  43  93 W5        29.96S FOG
RIVERTON       LGT RAIN  47  44  90 N3        29.96S
CASPER         CLOUDY    46  43  89 N13       29.91S
DOUGLAS        MOCLDY    45  43  93 NW5       29.90R

$$
WYZ021-027>030-104>119-250600-
SOUTHERN WYOMING

CITY           SKY/WX    TMP DP  RH WIND       PRES   REMARKS
EVANSTON       LGT RAIN  42  38  85 E9        29.99R
KEMMERER       DRIZZLE   41  39  93 E6        30.00S
FORT BRIDGER   CLOUDY    43  43 100 S6        30.03S
ROCK SPRINGS   CLOUDY    43  39  86 E8        29.99S
DIXON          FAIR      41  38  91 NE3       29.99S
RAWLINS        CLOUDY    44  39  82 N3        29.95S
SARATOGA       MOCLDY    37  36  93 SW3       29.97S
LARAMIE        FAIR      36  34  92 SW5       29.93S WCI  32
CHEYENNE       MOCLDY    45  38  76 NW6       29.90R
TORRINGTON     CLOUDY    52  49  89 CALM      29.85R
PINE BLUFFS    MOCLDY    46  43  87 NW5       29.87F

$$


USA.gov is the U.S. government's official web portal to all federal, state and local government web resources and services.